Current weather by "City, St" or "zip code"  
 

Current Conditions: Valley City, ND

Fair


16.0 F

Last Updated on Oct 23 2020, 9:55 pm CDT
Humidity: 93%
Wind Speed: W 10.4 mph
Barometer 30.36 in
Dewpoint: 14.0 F
Visibility: 10.00 mi
Precip: --
Heat Index: NA
Wind Chill: 4 F
Current conditions at:

Valley City, ND (KBAC)

Lat: 46.9412 Lon: 98.018

Local Radar Image active severe weather and emergency alerts image image weather storm and storm spotter reports image weather observation monitoring service image
Local
Radar
Active
Alerts
Storm Reports Obs
Monitoring

Sign-up For Email & Text Message Weather Alert Notification Services



Advertise Here

Observation History for Valley City, ND


Time Wind
(mph)
Vis
(mi)
Weather Precip (in) Temperature (F) Relative
Humidity
Wind
Chill
(F)
Heat
Index
(F)
Pressure
Air Dwpt altimeter
(in)
sea level
(mb)
Rmks
9:55 pm CDT W 10.4 10.00 Fair -- 16.0 14.0 93% 4 NA 30.36 M
8:55 pm CDT W 8.1 10.00 Fair -- 16.0 14.0 93% 5 NA 30.37 M
7:55 pm CDT W 8.1 10.00 Fair -- 19.0 12.2 73% 9 NA 30.37 M
6:55 pm CDT W 10.4 10.00 Fair -- 21.0 14.0 74% 10 NA 30.38 M
5:55 pm CDT W 12.7 10.00 Overcast -- 25.0 14.0 63% 14 NA 30.38 M
4:55 pm CDT NW 15.0 10.00 A Few Clouds -- 27.0 14.0 59% 15 NA 30.39 M
3:55 pm CDT NW 13.8 G 23.0 10.00 Mostly Cloudy -- 27.0 15.8 64% 16 NA 30.38 M
2:55 pm CDT NW 18.4 10.00 Light Snow -- 25.0 15.8 69% 11 NA 30.39 M
1:55 pm CDT W 17.3 10.00 Mostly Cloudy -- 27.0 17.6 69% 14 NA 30.41 M
12:55 pm CDT NW 17.3 10.00 Fair -- 25.0 17.6 74% 12 NA 30.43 M
11:55 am CDT W 13.8 10.00 Fair -- 21.0 17.6 86% 8 NA 30.45 M
10:55 am CDT NW 17.3 10.00 Light Unknown Precip -- 21.0 15.8 80% 7 NA 30.45 M
9:55 am CDT NW 15.0 10.00 Fair -- 19.0 15.8 86% 5 NA 30.45 M
8:55 am CDT NW 11.5 10.00 Mostly Cloudy -- 19.0 17.6 93% 7 NA 30.45 M
7:55 am CDT NW 12.7 10.00 Overcast -- 25.0 23.0 93% 14 NA 30.43 M
6:55 am CDT NW 13.8 10.00 Light Rain -- 27.0 24.8 93% 16 NA 30.42 M
5:55 am CDT NW 10.4 10.00 Light Rain -- 27.0 26.6 100% 17 NA 30.41 M
4:55 am CDT NW 6.9 10.00 Light Unknown Precip -- 25.0 24.8 100% 17 NA 30.41 M
3:35 am CDT NW 9.2 10.00 Overcast -- 25.0 24.8 100% 16 NA 30.40 M
2:55 am CDT NW 11.5 10.00 Overcast -- 25.0 24.8 100% 14 NA 30.40 M
1:55 am CDT NW 9.2 10.00 Overcast -- 25.0 24.8 100% 16 NA 30.39 M
12:55 am CDT N 6.9 10.00 Overcast -- 27.0 26.6 100% 20 NA 30.38 M
11:55 pm CDT N 13.8 10.00 Overcast -- 28.0 28.4 100% 17 NA 30.37 M
10:55 pm CDT N 15.0 10.00 Overcast -- 28.0 28.4 100% 16 NA 30.37 M

Regional Weather Observation


Valley City, ND (KBAC)

Fair
16.0 F

Jamestown, Jamestown Municipal Airport, ND (KJMS)

Fair
16.0 F

CARRINGTON, ND (K46D)

Fair
16.0 F

Grand Forks Air Force Base, ND (KRDR)

Fair
19.0 F

Oakes Municipal Airport, ND (K2D5)

Fair
12.0 F

Grand Forks, Grand Forks International Airport, ND (KGFK)

Mostly Cloudy
22.0 F